STARLINK-36383, 67922

Orbit data source: Space-Track

STARLINK-36383, 67922 is a payload satellite owned by SpaceX/Seattle (US) in LEO that was launched on Sun, 22 Feb 2026 UTC via an FALCON 9 launch vehicle from the Air Force Eastern Test Range (AFETR). Payload-class satellites include a variety of spacecraft equipped with specific instruments for various scientific and technological missions. These include communications satellites like Starlink; space stations such as the ISS; scientific satellites like the Hubble; Earth observation satellites from companies like Planet Labs, Umbra, and HawkEye 360; GPS; miniature CubeSats for education and research; and military/defense satellites.

Loading next visibility...
Identifier
67922, 2026-036U
Orbit
LEO
Country
Flag of USUS
Related business
Manufacturer
SpaceX/Seattle
Mission
Operational spacecraft
Bus & Motor
STARLINK V2MO, Unknown motor
Mass
575 kg wet, ~530 kg dry
Launch date (UTC)
2026-02-22 (3 weeks ago)
Launch vehicle
FALCON 9
Launch site
Air Force Eastern Test Range (AFETR)
Object type
Payload
Rocket body
Debris
Shape & HBR
Unknown
Radar Cross Section
RCS unknown

Expand to show TLE details & history
Last TLE update: 12 hours ago

TLE from 12 hours ago
0 STARLINK-36383
1 67922U 26036U   26071.85502549  .00165048  00000-0  76872-3 0  9994
2 67922  42.9988 230.2172 0001452 278.6309  81.4398 15.82093430  4172
Epoch: 2026-03-12T20:31Z
TLE epoch observation values (Epoch: 2026-03-12T20:31:14.202Z)
Latitude
-0.00003°
Longitude
111.90907°
Altitude
324.147 km
Speed
7.716 km/s
True Right ascension
15h 20m 52s
True Declination
0° 00' 00"
Sunlit
Object was in full shadow at epoch
Visualization orbit readout
Latitude
Unknown
Longitude
Unknown
Altitude
Unknown
Speed
Unknown
Apparent Right ascension
Unknown
Apparent Declination
Unknown
Sunlit
N/A
Visualization observer readout
Local Sidereal Time
13:13:41
Azimuth
Unknown
Elevation
Unknown
Doppler factor
Unknown
Orbital elements
Apogee altitude
327.486 km
Perigee altitude
325.539 km
Semi-major axis
6,704.65 km
Eccentricity
0.00015
Inclination
42.9988°
RAAN
230.2172°
Arg. of periapsis
278.6309°
True anomaly
81.45625°
Mean anomaly
81.4398°
Eccentric anomaly
81.44803°
Mean motion
3.95348 °/min
Orbital period
91.06 mins
BSTAR
0.00076872
Loading maneuver chart data...
Computing Atmospheric mass density...
Loading historical data...
Loading historical data...
Loading historical data...
Loading historical data...
Loading historical data...
Loading historical data...
Loading historical data...

Documentation

Showing up to 5 results
|